Mastic, NY

3:42 PM EST on February 12, 2016 (GMT -0500)
Brookhaven

Weather History for KHWV - January, 2006

Change the Weather History Date:

Monday, January 2, 2006

  Actual Average (KISP) Record (KISP)
Temperature  
Mean Temperature 38 °F 32 °F  
Max Temperature 45 °F 39 °F 57 °F (2000)
Min Temperature 32 °F 24 °F 8 °F (1999)
Degree Days  
Heating Degree Days 26 34  
Month to date heating degree days 67  
Since 1 July heating degree days 1994  
Cooling Degree Days 0 0  
Month to date cooling degree days 0  
Year to date cooling degree days 0  
Moisture  
Dew Point 35 °F    
Average Humidity 87    
Maximum Humidity 96    
Minimum Humidity 60    
Precipitation  
Precipitation 0.40 in 0.12 in 0.89 in (1987)
Month to date precipitation 0.24  
Year to date precipitation 0.24  
Snow  
Snow 0.00 in 0.30 in 4.70 in (2014)
Month to date snowfall 0.5  
Since 1 July snowfall 6.4  
Snow Depth -    
Sea Level Pressure  
Sea Level Pressure 30.17 in    
Wind  
Wind Speed 3 mph (SE)    
Max Wind Speed 10 mph    
Max Gust Speed 22 mph    
Visibility 6 miles    
Events Rain    
T = Trace of Precipitation, MM = Missing Value Source: NWS Daily Summary

Daily Weather History Graph

Daily Weather History Graph

Search for Another Location

Airport or City:

Trip Planner

Search our weather history database for the weather conditions in past years. The results will help you decide how hot, cold, wet, or windy it might be!

Date:

Astronomy

Jan. 02, 2006 Rise Set
Actual Time 7:15 AM EST 4:35 PM EST
Civil Twilight 6:45 AM EST 5:06 PM EST
Nautical Twilight 6:10 AM EST 5:40 PM EST
Astronomical Twilight 5:37 AM EST 6:13 PM EST
Moon 9:36 AM EST (1/2) 7:42 PM EST (1/2)
Length of Visible Light 10h 21m
Length of Day
9h 19m
Waxing Crescent, 9% of the Moon is Illuminated
Jan 2
Waxing Crescent
Jan 6
First Quarter
Jan 14
Full
Jan 22
Last Quarter
Jan 29
New

Hourly Weather History & Observations

Time (EST) Temp. Windchill Dew Point Humidity Pressure Visibility Wind Dir Wind Speed Gust Speed Precip Events Conditions
12:56 AM 37.0 °F 34.5 °F 34.0 °F 89% 30.20 in 7.0 mi WSW 3.5 mph - N/A   Overcast
1:56 AM 37.0 °F 33.3 °F 33.1 °F 86% 30.23 in 7.0 mi WSW 4.6 mph - N/A   Overcast
2:56 AM 35.1 °F 32.2 °F 32.0 °F 89% 30.23 in 7.0 mi West 3.5 mph - N/A   Mostly Cloudy
3:56 AM 34.0 °F - 32.0 °F 92% 30.22 in 4.0 mi Calm Calm - N/A   Clear
4:56 AM 34.0 °F - 32.0 °F 92% 30.23 in 5.0 mi Calm Calm - N/A   Mostly Cloudy
5:48 AM 33.8 °F - 32.0 °F 93% 30.22 in 2.5 mi Calm Calm - N/A   Overcast
5:56 AM 33.1 °F - 32.0 °F 96% 30.22 in 2.0 mi Calm Calm - N/A   Overcast
6:56 AM 33.1 °F - 32.0 °F 96% 30.23 in 1.8 mi Calm Calm - N/A   Scattered Clouds
7:09 AM 33.8 °F - 32.0 °F 93% 30.23 in 2.5 mi Calm Calm - N/A   Partly Cloudy
7:23 AM 32.0 °F - 30.2 °F 93% 30.22 in 0.8 mi Calm Calm - N/A   Partly Cloudy
7:56 AM 33.1 °F - 32.0 °F 96% 30.23 in 1.0 mi Calm Calm - N/A   Overcast
8:24 AM 35.6 °F - 33.8 °F 93% 30.25 in 3.0 mi Calm Calm - N/A   Overcast
8:56 AM 37.0 °F - 35.1 °F 93% 30.27 in 5.0 mi Calm Calm - N/A   Overcast
9:56 AM 42.1 °F - 33.1 °F 70% 30.26 in 9.0 mi Calm Calm - N/A   Partly Cloudy
10:56 AM 44.1 °F 40.8 °F 30.9 °F 60% 30.24 in 10.0 mi South 5.8 mph - N/A   Clear
11:56 AM 44.1 °F 41.5 °F 33.1 °F 65% 30.23 in 10.0 mi SSW 4.6 mph - N/A   Clear
12:56 PM 45.0 °F - 32.0 °F 60% 30.19 in 10.0 mi Calm Calm - N/A   Clear
1:56 PM 44.1 °F 40.1 °F 35.1 °F 71% 30.18 in 10.0 mi SE 6.9 mph - N/A   Partly Cloudy
2:56 PM 44.1 °F 40.8 °F 36.0 °F 73% 30.18 in 10.0 mi SE 5.8 mph - N/A   Clear
4:56 PM 43.0 °F - 35.1 °F 74% 30.19 in 10.0 mi Calm Calm - N/A   Overcast
5:56 PM 41.0 °F 39.0 °F 37.0 °F 86% 30.20 in 6.0 mi East 3.5 mph - 0.01 in Rain Light Rain
6:56 PM 39.9 °F 37.8 °F 37.0 °F 89% 30.16 in 5.0 mi Variable 3.5 mph - 0.06 in Rain Light Rain
7:56 PM 39.0 °F 34.8 °F 37.9 °F 96% 30.13 in 4.0 mi East 5.8 mph - 0.10 in Rain Rain
8:56 PM 39.0 °F 34.0 °F 37.9 °F 96% 30.08 in 5.0 mi East 6.9 mph - 0.09 in Rain Light Rain
9:11 PM 39.2 °F 33.6 °F 37.4 °F 93% 30.07 in 5.0 mi ENE 8.1 mph - 0.01 in Rain Light Rain
9:22 PM 39.2 °F 34.2 °F 37.4 °F 93% 30.07 in 5.0 mi Variable 6.9 mph - 0.03 in Rain Light Rain
9:46 PM 39.2 °F 34.2 °F 37.4 °F 93% 30.06 in 6.0 mi Variable 6.9 mph - 0.05 in Rain Light Rain
9:56 PM 39.0 °F 34.0 °F 37.9 °F 96% 30.06 in 6.0 mi Variable 6.9 mph - 0.06 in Rain Light Rain
10:38 PM 39.2 °F 34.2 °F 37.4 °F 93% 30.03 in 6.0 mi Variable 6.9 mph - 0.03 in Rain Light Rain
10:56 PM 39.9 °F 33.9 °F 37.9 °F 93% 30.03 in 6.0 mi East 9.2 mph - 0.05 in Rain Light Rain
11:41 PM 41.0 °F 35.2 °F 37.4 °F 87% 30.00 in 5.0 mi East 9.2 mph 21.9 mph 0.03 in Rain Light Rain
11:56 PM 41.0 °F 34.7 °F 39.0 °F 93% 30.00 in 5.0 mi East 10.4 mph - 0.03 in Rain Light Rain